Weather History for Wilkerson Pass, CO

Change the Weather History Date:

Saturday, July 21, 2012

  Actual Average (KAFF) Record (KAFF)
Temperature  
Mean Temperature 56 °F -  
Max Temperature 60 °F 80 °F 95 °F (2005)
Min Temperature 53 °F 53 °F 53 °F (1997)
Degree Days  
Heating Degree Days 9    
Growing Degree Days 6 (Base 50)    
Moisture  
Dew Point 33 °F    
Average Humidity 43    
Maximum Humidity 51    
Minimum Humidity 39    
Precipitation  
Precipitation 0.00 in - - ()
Sea Level Pressure  
Sea Level Pressure 30.75 in    
Wind  
Wind Speed 8 mph (SW)    
Max Wind Speed 13 mph    
Max Gust Speed 21 mph    
Visibility 10 miles    
Events      
Averages and records for this station are not official NWS values.
T = Trace of Precipitation, MM = Missing Value Source: NWS Daily Summary

Daily Weather History Graph

Daily Weather History Graph

Search for Another Location

Airport:

Trip Planner

Search our weather history database for the weather conditions in past years. The results will help you decide how hot, cold, wet, or windy it might be!

Date:

Astronomy

Jul. 21, 2012 Rise Set
Actual Time 5:53 AM MDT 8:22 PM MDT
Civil Twilight 5:23 AM MDT 8:53 PM MDT
Nautical Twilight 4:44 AM MDT 9:31 PM MDT
Astronomical Twilight 4:02 AM MDT 10:13 PM MDT
Moon 8:35 AM MDT (7/21) 9:38 PM MDT (7/21)
Length of Visible Light 15h 30m
Length of Day
14h 29m
Waxing Crescent, 7% of the Moon is Illuminated
Jul 21
Waxing Crescent
Jul 26
First Quarter
Aug 1
Full
Aug 9
Last Quarter
Aug 17
New

Hourly Weather History & Observations

Time (MDT) Temp. Dew Point Humidity Pressure Visibility Wind Dir Wind Speed Gust Speed Precip Events Conditions
12:13 AM 55.4 °F 32.0 °F 41% 30.76 in 10.0 mi South 12.7 mph 20.7 mph N/A   Clear
12:33 AM 55.4 °F 32.0 °F 41% 30.75 in 10.0 mi South 11.5 mph 19.6 mph N/A   Clear
12:53 AM 55.4 °F 32.0 °F 41% 30.75 in 10.0 mi South 9.2 mph 19.6 mph N/A   Clear
1:13 AM 55.4 °F 32.0 °F 41% 30.75 in 10.0 mi South 8.1 mph 19.6 mph N/A   Clear
1:33 AM 55.4 °F 32.0 °F 41% 30.74 in 10.0 mi South 6.9 mph - N/A   Clear
1:53 AM 55.4 °F 32.0 °F 41% 30.74 in 10.0 mi Calm Calm - N/A   Clear
2:53 AM 53.6 °F 32.0 °F 44% 30.74 in 10.0 mi SSW 5.8 mph - N/A   Clear
3:13 AM 53.6 °F 32.0 °F 44% 30.74 in 10.0 mi SW 6.9 mph - N/A   Clear
3:33 AM 53.6 °F 32.0 °F 44% 30.74 in 10.0 mi SW 5.8 mph - N/A   Clear
3:53 AM 55.4 °F 32.0 °F 41% 30.74 in 10.0 mi SW 5.8 mph - N/A   Scattered Clouds
4:10 AM 55.4 °F 32.0 °F 41% 30.74 in 10.0 mi SW 5.8 mph - N/A   Scattered Clouds
4:33 AM 55.4 °F 32.0 °F 41% 30.74 in 10.0 mi SW 4.6 mph - N/A   Mostly Cloudy
4:53 AM 55.4 °F 32.0 °F 41% 30.74 in 10.0 mi WSW 5.8 mph - N/A   Scattered Clouds
5:13 AM 53.6 °F 32.0 °F 44% 30.74 in 10.0 mi WSW 5.8 mph - N/A   Clear
5:33 AM 53.6 °F 32.0 °F 44% 30.74 in 10.0 mi WSW 6.9 mph - N/A   Clear
5:53 AM 53.6 °F 32.0 °F 44% 30.74 in 10.0 mi West 8.1 mph - N/A   Clear
6:13 AM 53.6 °F 33.8 °F 47% 30.75 in 10.0 mi West 9.2 mph - N/A   Clear
6:33 AM 53.6 °F 35.6 °F 51% 30.75 in 10.0 mi WSW 6.9 mph - N/A   Clear
6:53 AM 53.6 °F 35.6 °F 51% 30.76 in 10.0 mi WSW 6.9 mph - N/A   Clear
7:13 AM 53.6 °F 35.6 °F 51% 30.76 in 10.0 mi West 6.9 mph - N/A   Clear
7:33 AM 55.4 °F 35.6 °F 47% 30.76 in 10.0 mi West 4.6 mph - N/A   Clear
7:53 AM 59.0 °F 33.8 °F 39% 30.76 in 10.0 mi Calm Calm - N/A   Clear
8:13 AM 60.8 °F 35.6 °F 39% 30.76 in 10.0 mi Calm Calm - N/A   Clear